Participated 1 time
in 2008
Matteo Carrara, Italy
Tour de France 2026 starts from Barcelona, Spain in

Stats and Facts from
Tour de France.

2026   2025   2024   2023  2022  2021  2020  2019   2018  2017   2016   2015  2014  2013   2012   2011  2010   2009   2008   2007   2006   2005   2004   2003   2002   2001   2000   1999   1998   1997  1996   1995   1994   1993   1992  1991   1990   1989   1988   1987   1986   1985   1984   1983  1982  1981   1980   1979  1978  1977   1976  1975  1974  1973   1972   1971   1970  1969   1968   1967   1966   1965  1964  1963   1962   1961   1960   1959   1958   1957  1956   1955   1954   1953   1952  1951  1950  1949   1948  1947  1939   1938   1937   1936   1935   1934   1933  1932   1931   1930  1929   1928   1927   1926  1925  1924  1923   1922   1921   1920   1919  1914   1913   1912   1911   1910  1909   1908   1907   1906  1905  1904   1903 

Tourstats
Sitemap

After stage 21 - 2025:
 16451 starters.
  5464 different riders.
  689 teams.
  2398 stages.
  470 restdays.
  466506.50 km.
  5925 abandoned riders.

Click map for 1907 route.
Facts from Tour de France 1907
  |   Stages.  |   Stage winners.  |   Days in jerseys.  |   Teams.  |   All riders.  |   All riders by age.  |   All riders from.  |  

  |   Rookies.  |   Withdrawls.  |   Average speed.  |   GC.  |   Polka  |   Green  |   White  |   Summits. (In tour)  |   Miscellaneous.  |  

Stage 3 on July 13th. 1907
Pick a stage:  1  2  3  4  5  6  7  8  9  10  11  12  13  14  

After stage 3:    Lucien Petit-Breton  
  MetzBelfort | Dist: 259.00km. | Winner: Emile Georget

Podium

Average speed for all riders in stage:  25,497 km./hr.

1
 Emile Georget  Individual07h 46' 18"=33,326  km/h

2
 Henri Lignon  Individual07h 47' 30"+  00:01:12 =33,241  km/h

3
 François Faber  Individual07h 50' 15"+  00:03:57 =33,046  km/h

4  Gustave Garrigou  Individual07h 50' 20"+  00:04:02 =33,040  km/h

5  Marcel Cadolle  Individual07h 51' 00"+  00:04:42 =32,994  km/h

6  Louis Trousselier  Individual07h 57' 50"+  00:11:32 =32,522  km/h

7  Léon Georget  Individual08h 00' 35"+  00:14:17 =32,336  km/h

8  Julien Maîtron  Individual08h 03' 37"+  00:17:19 =32,133  km/h

9  Lucien Petit-Breton  Individual08h 04' 10"+  00:17:52 =32,096  km/h

10  Georges Passerieu  Individual08h 04' 10"+  00:17:52 =32,096  km/h

11  Carlo Galetti  Individual08h 08' 38"+  00:22:20 =31,803  km/h

12  Augustin Ringeval  Individual08h 15' 05"+  00:28:47 =31,389  km/h

13  Eberardo Pavesi  Individual08h 17' 46"+  00:31:28 =31,219  km/h

14  Luigi Ganna  Individual08h 18' 46"+  00:32:28 =31,157  km/h

15  Julien Gabory  Individual08h 18' 46"+  00:32:28 =31,157  km/h

16  Henri Cornet  Individual08h 21' 47"+  00:35:29 =30,970  km/h

17  Clément Anselme Mazan  Individual08h 22' 00"+  00:35:42 =30,956  km/h

18  Constant Menager  Individual08h 25' 57"+  00:39:39 =30,714  km/h

19  François Beaugendre  Individual08h 25' 57"+  00:39:39 =30,714  km/h

20  Pierre Privat  Individual08h 26' 42"+  00:40:24 =30,669  km/h

21  Cyrille Van Hauwaert  Individual08h 35' 29"+  00:49:11 =30,146  km/h

22  Georges Landrieu  Individual08h 40' 46"+  00:54:28 =29,841  km/h

23  Georges Fleury  Individual08h 43' 10"+  00:56:52 =29,704  km/h

24  Ferdinand Payan  Individual08h 46' 47"+  01:00:29 =29,500  km/h

25  Honore Genin  Individual08h 46' 47"+  01:00:29 =29,500  km/h

26  Alois Catteau  Individual08h 49' 57"+  01:03:39 =29,324  km/h

27  Ernest Ricaux  Individual08h 54' 45"+  01:08:27 =29,060  km/h

28  Marius Julien Villette  Individual08h 54' 46"+  01:08:28 =29,059  km/h

29  Jean-Baptiste Roux  Individual08h 55' 00"+  01:08:42 =29,047  km/h

30  Charles Jeanperin  Individual08h 55' 01"+  01:08:43 =29,046  km/h

31  Christophe Laurent  Individual08h 58' 19"+  01:12:01 =28,868  km/h

32  Martin Soulie  Individual09h 02' 57"+  01:16:39 =28,621  km/h

33  Lucien Pothier  Individual09h 03' 20"+  01:17:02 =28,601  km/h

34  Marcel Godivier  Individual09h 11' 44"+  01:25:26 =28,166  km/h

35  Gabriel Mathonat  Individual09h 12' 10"+  01:25:52 =28,144  km/h

36  François  Lafourcade  Individual09h 23' 24"+  01:37:06 =27,583  km/h

37  Fernand Vercher  Individual09h 23' 24"+  01:37:06 =27,583  km/h

38  Auguste Dufour  Individual09h 25' 51"+  01:39:33 =27,463  km/h

39  Henri Timmermann  Individual09h 25' 51"+  01:39:33 =27,463  km/h

40  Gaston Tuvache  Individual09h 27' 58"+  01:41:40 =27,361  km/h

41  Fernand Lallement  Individual09h 38' 00"+  01:51:42 =26,886  km/h

42  Léon Riche  Individual09h 38' 05"+  01:51:47 =26,882  km/h

43  Marceau Narcy  Individual09h 45' 35"+  01:59:17 =26,538  km/h

44  Marcel Lecuyer  Individual09h 49' 40"+  02:03:22 =26,354  km/h

45  Joseph Ponthieu  Individual09h 49' 41"+  02:03:23 =26,353  km/h

46  Eugène Delaye  Individual09h 53' 10"+  02:06:52 =26,198  km/h

47  Alzire Vivier  Individual09h 53' 11"+  02:06:53 =26,198  km/h

48  Alfred Le Bars  Individual09h 53' 12"+  02:06:54 =26,197  km/h

49  Henri Star  Individual10h 08' 00"+  02:21:42 =25,559  km/h

50  Albert Baudet  Individual10h 08' 01"+  02:21:43 =25,559  km/h

51  Philippe Pautrat  Individual10h 11' 35"+  02:25:17 =25,409  km/h

52  Alfred Quenon  Individual10h 16' 20"+  02:30:02 =25,214  km/h

53  Henri Lorillon  Individual10h 18' 53"+  02:32:35 =25,110  km/h

54  Albert Chartier  Individual10h 35' 00"+  02:48:42 =24,472  km/h

55  Edouard Wattelier  Individual10h 42' 00"+  02:55:42 =24,206  km/h

56  Rene Fleury  Individual10h 57' 15"+  03:10:57 =23,644  km/h

57  François Poiry  Individual11h 08' 05"+  03:21:47 =23,261  km/h

58  Octave Noel  Individual11h 24' 32"+  03:38:14 =22,702  km/h

59  David Dupont  Individual11h 37' 15"+  03:50:57 =22,288  km/h

60  Marcel Dozol  Individual11h 48' 00"+  04:01:42 =21,949  km/h

61  Jacques Mendes  Individual11h 59' 00"+  04:12:42 =21,613  km/h

62  Armand Roume  Individual12h 14' 17"+  04:27:59 =21,163  km/h

63  Albert Geraud  Individual12h 28' 31"+  04:42:13 =20,761  km/h

64  Georges Bronchard  Individual12h 30' 30"+  04:44:12 =20,706  km/h

65  Eloi Guichard  Individual12h 30' 31"+  04:44:13 =20,706  km/h

66  Jules Chabas  Individual12h 55' 00"+  05:08:42 =20,052  km/h

67  Henri Anthoine  Individual13h 03' 00"+  05:16:42 =19,847  km/h

68  Léon Aumonier  Individual13h 21' 00"+  05:34:42 =19,401  km/h

69  Louis Gardent  Individual13h 45' 00"+  05:58:42 =18,836  km/h

70  Pierre Desvages  Individual14h 12' 00"+  06:25:42 =18,239  km/h

71  Jean-Marie Techenne  Individual14h 20' 00"+  06:33:42 =18,070  km/h

72  Georges Devilly  Individual14h 27' 00"+  06:40:42 =17,924  km/h

73  Andre Sevestre  Individual14h 36' 00"+  06:49:42 =17,740  km/h

74  Joseph Rouaix  Individual14h 37' 00"+  06:50:42 =17,719  km/h

75  Henri Pépin  Individual14h 47' 00"+  07:00:42 =17,520  km/h

76  Jean Gauban  Individual14h 47' 00"+  07:00:42 =17,520  km/h

77  Jean Dargassies  Individual14h 47' 38"+  07:01:20 =17,507  km/h


Withdrawls: 3
 RiderTeamReason
35   Gaston Angeli IndividualDid not finish
36   Louis Lavalette IndividualDid not finish
55   Charles Crupelandt IndividualDid not finish
Todays birthdays.

1884 • Vincenzo Borgarello
1889 • Emile Bonnefoi
1889 • Auguste Denizot
1890 • Maurice Petit
1904 • Pierino Ferioli
1905 • Vincent Carrara
1910 • Antoon Van Schendel
1925 • Georges Meunier
1945 • Gérard Besnard
1950 • Wim Kelleners
1960 • Ivan Ivanov
1960 • Pierre-Henri Menthéour
1962 • Giovanni Bottoia
1964 • Flavio Giupponi
1974 • Benoit Salmon
1977 • Iñigo Landaluze
1977 • Svein Tuft
1979 • Rubens Bertogliati
1985 • Matthew Busche

 

Optimized for Chrome - Edge
and Opera browsers.